Theta_e
363 363 360 358 356 355 353 351 350 351 351 349 346 347 347 350 351 352 351 351 350 348 349 349 348 347 346 348 348 348 347 346 345 345 345 345 343 342 341 341 343 343
362 361 359 357 355 353 352 351 350 350 350 350 349 350 350 351 350 350 350 349 350 348 349 347 348 348 346 344 347 346 346 346 344 345 345 345 344 344 341 342 342 343
360 358 356 354 352 351 348 348 349 349 348 348 349 350 349 349 350 351 351 349 348 346 348 348 347 348 347 347 348 346 344 345 344 343 346 346 345 344 344 340 342 342
357 355 353 352 351 350 348 347 346 348 348 347 347 347 347 348 349 349 350 349 347 347 346 346 346 345 347 347 347 344 344 345 343 346 345 346 346 345 343 343 342 342
354 352 351 349 348 350 348 345 343 345 345 345 347 348 348 348 348 348 348 348 348 346 347 347 347 345 347 346 346 344 345 343 345 347 344 343 344 344 342 344 344 342
352 351 350 349 348 349 346 345 345 344 344 345 346 346 346 347 347 346 347 345 344 342 344 345 345 344 345 345 346 344 343 340 341 345 343 342 340 342 343 344 344 342
350 349 347 346 346 347 346 346 347 346 344 345 347 345 346 346 346 346 347 345 344 344 343 344 345 344 345 346 345 344 345 343 344 344 342 342 343 342 344 344 343 342
349 347 345 344 344 345 344 345 345 345 346 347 343 344 345 343 345 345 346 345 343 345 345 345 345 347 344 345 343 343 342 343 342 344 344 342 343 342 342 343 344 343
346 344 343 343 343 343 341 342 343 344 344 342 340 340 343 343 344 343 343 344 343 343 344 344 345 345 345 344 343 343 341 341 342 342 342 341 340 340 340 343 343 343
345 342 340 339 339 341 339 340 340 342 342 341 339 338 338 340 340 341 341 342 341 341 342 343 343 343 343 343 343 343 342 342 343 343 342 341 340 340 340 343 341 340
342 341 340 339 338 338 339 339 339 338 339 339 339 338 338 337 337 339 340 339 338 339 341 341 342 343 343 343 343 343 343 342 343 344 343 342 342 341 341 342 341 340
341 342 341 340 339 339 339 338 337 339 339 339 339 338 336 335 335 336 337 338 339 340 341 342 343 344 344 343 342 342 343 342 342 343 342 342 342 342 343 343 341 341
344 344 341 340 342 343 342 340 338 339 339 338 339 335 333 331 333 334 337 337 339 339 340 341 342 343 343 343 343 344 343 343 342 342 342 342 343 342 341 342 342 342
345 346 345 342 342 344 343 341 340 341 341 340 337 334 333 333 333 332 334 336 338 338 340 342 342 342 342 342 343 343 343 342 343 341 341 341 343 343 342 340 342 341
346 347 347 345 341 342 343 342 344 342 338 338 335 332 333 333 333 333 333 335 337 339 340 340 340 340 341 342 342 343 343 342 342 342 341 341 342 341 342 342 342 342
346 347 347 346 342 342 342 341 338 334 333 335 333 332 333 335 334 334 334 335 337 338 339 340 340 341 335 328 332 342 343 343 342 342 342 342 341 340 340 341 341 340
345 345 346 345 343 342 340 336 333 333 333 332 333 332 333 334 334 333 333 334 335 336 337 338 339 339 328 326 326 327 337 343 342 342 343 342 341 340 340 340 341 341
343 344 345 344 343 340 339 335 333 331 330 330 332 332 332 333 333 333 335 336 336 336 337 339 340 330 325 324 325 325 327 339 342 341 341 341 341 340 341 340 340 340
344 343 344 344 342 339 337 333 331 329 327 328 331 332 332 331 332 334 335 337 337 337 337 338 339 329 324 323 323 323 324 328 338 342 341 341 341 341 341 341 341 339
344 343 342 342 341 337 335 331 329 328 329 332 332 332 332 332 334 335 336 337 337 338 339 339 339 329 323 320 320 321 322 326 337 341 343 342 342 342 341 340 338 334
343 342 341 341 339 337 335 333 332 333 333 334 333 333 332 332 334 335 336 337 337 337 337 337 337 325 321 319 318 317 319 324 336 340 341 341 340 340 339 337 337 336
341 341 340 339 337 336 336 334 333 334 334 336 335 333 333 334 336 336 336 336 337 337 335 336 337 323 320 318 317 317 320 331 336 338 338 337 337 337 338 338 338 338
340 339 339 338 336 335 334 333 333 334 335 336 334 334 333 333 334 335 337 337 337 338 337 337 338 329 317 315 315 315 321 334 337 337 337 335 334 337 337 337 337 337
340 339 338 337 336 334 334 335 335 336 336 336 334 333 332 333 334 335 337 338 338 338 337 338 338 333 317 314 313 315 323 336 337 335 331 329 331 334 336 335 335 331
340 339 339 337 336 336 336 336 336 336 336 336 335 335 335 336 336 336 336 338 337 337 336 335 338 329 315 316 314 313 322 334 335 333 331 331 332 334 334 333 334 332
340 339 338 337 336 337 338 337 338 337 336 335 335 335 335 336 336 337 336 337 337 337 336 336 335 337 328 312 311 310 316 334 334 332 331 331 334 332 333 333 334 334
Wind_Speed
10 9 9 8 7 6 7 7 7 7 7 7 7 7 8 7 7 8 8 8 8 8 8 7 7 7 6 6 5 4 4 4 4 4 4 4 4 5 5 5 5 5
11 9 7 7 6 6 6 7 8 8 7 6 6 6 6 6 7 8 8 8 8 9 8 8 7 7 7 6 5 5 4 4 5 4 5 6 6 6 6 7 7 6
10 10 10 10 9 10 10 8 8 8 7 8 7 6 6 6 7 7 7 8 8 9 8 7 7 7 7 6 5 5 5 5 6 5 5 6 5 5 5 6 6 7
11 11 10 10 10 10 9 8 8 7 7 7 8 8 7 6 7 8 7 8 8 8 8 8 7 7 6 6 5 5 5 5 5 4 4 4 4 4 5 4 5 5
12 11 10 10 10 10 9 9 10 8 8 8 8 8 7 7 8 8 7 7 7 8 7 7 7 7 6 6 5 5 5 5 4 3 4 5 4 4 4 4 4 5
12 11 11 11 10 9 9 10 11 11 10 10 9 8 8 9 8 8 8 9 8 8 7 7 7 7 7 6 5 5 5 5 5 4 5 6 6 5 4 4 4 5
13 12 12 11 11 9 10 10 10 10 10 9 8 8 9 9 9 9 9 8 8 7 7 6 7 7 6 5 5 5 5 6 5 5 6 6 5 6 5 5 5 6
12 11 11 10 11 11 12 11 10 9 9 8 10 8 7 8 8 7 7 8 7 7 6 6 6 7 6 5 6 6 7 5 5 6 6 6 6 6 6 5 4 5
9 7 8 11 12 11 13 11 10 8 8 9 9 8 7 7 7 7 7 7 6 6 6 6 6 6 5 5 5 6 7 7 6 6 7 7 7 7 6 5 5 5
8 10 14 14 14 11 12 12 10 9 9 9 9 8 7 5 4 5 6 6 7 6 6 6 6 5 5 5 6 7 7 7 7 6 6 7 7 7 6 5 5 5
13 12 13 14 14 13 14 13 13 12 9 10 9 7 7 6 4 3 4 5 5 6 6 6 6 6 6 7 6 6 7 7 7 7 7 7 7 6 6 6 5 6
16 15 15 16 16 16 16 15 14 12 10 8 10 11 9 7 6 3 5 7 6 6 6 6 6 6 7 7 8 7 7 7 7 7 7 7 7 7 6 6 6 6
16 15 14 16 15 12 11 11 12 12 12 11 8 10 9 6 6 5 6 6 6 6 7 7 7 7 7 7 7 7 7 7 7 7 7 7 7 7 7 6 6 6
16 16 14 13 11 9 10 11 12 11 9 7 8 9 9 8 8 8 7 7 7 7 7 6 6 7 7 7 7 7 7 7 7 8 8 8 7 7 7 7 6 7
14 12 11 13 14 12 9 8 7 7 8 6 7 8 9 8 6 6 7 8 8 7 7 6 7 7 7 7 7 8 8 8 8 8 8 8 8 8 7 7 6 7
12 10 10 11 11 9 9 6 5 7 11 9 7 5 6 6 6 10 10 10 9 8 8 7 7 6 9 13 10 8 8 7 7 7 8 8 7 7 7 7 8 7
11 12 10 11 11 14 15 10 8 7 4 3 3 7 6 5 7 10 11 11 10 9 9 8 8 7 13 13 13 14 10 8 7 7 8 8 8 7 8 8 8 8
13 13 12 12 13 14 12 13 13 10 9 7 8 9 8 7 10 11 11 9 8 11 11 9 9 11 14 14 14 14 13 9 8 8 8 8 8 8 7 8 8 7
12 13 13 12 12 13 12 10 11 12 14 16 11 6 6 9 10 10 11 11 10 12 11 10 10 11 14 14 14 14 14 12 9 9 9 8 8 8 8 8 5 1
12 13 13 13 12 14 14 14 15 17 15 8 7 9 8 9 11 13 11 11 11 11 10 10 10 11 13 14 14 14 14 11 9 9 8 8 8 8 6 4 2 4
13 13 13 12 13 14 15 15 14 12 13 12 10 10 11 11 12 12 11 11 12 11 10 10 10 12 13 14 14 13 14 11 7 6 6 6 6 6 5 8 9 8
13 13 12 12 13 14 14 14 14 14 13 11 10 10 10 10 11 12 12 12 11 10 10 11 11 12 13 13 12 13 9 5 6 6 6 6 6 7 7 6 7 7
13 13 13 13 14 14 14 15 14 13 12 9 10 11 11 13 13 12 11 10 10 10 11 10 10 9 11 10 9 8 4 5 5 6 4 4 8 8 6 6 5 5
13 14 13 13 14 15 16 14 12 11 11 10 11 11 12 13 12 10 9 9 11 11 10 10 8 2 8 7 9 9 7 5 3 1 4 3 9 9 5 4 4 5
13 13 14 14 15 14 12 11 11 11 10 10 10 9 9 8 9 8 8 8 8 8 3 5 5 2 9 6 6 7 7 5 4 4 6 8 7 6 4 4 4 5
12 14 14 15 14 12 10 10 9 8 8 8 8 8 9 10 9 7 8 7 5 5 3 3 4 1 3 5 7 9 10 7 6 6 5 5 6 5 5 5 5 4
Wind_Direction
197 194 193 189 194 193 184 189 192 189 185 180 176 180 179 182 173 178 184 185 188 195 196 199 202 205 207 206 205 211 219 226 226 216 219 223 232 236 243 246 244 244
198 190 182 182 180 185 189 190 186 188 184 177 180 172 178 174 182 188 190 189 190 196 195 199 204 209 210 209 203 206 213 219 228 215 222 222 230 232 239 246 253 252
190 184 182 185 191 192 192 189 187 188 180 179 179 174 176 183 186 193 193 193 193 197 196 200 206 211 212 210 202 206 213 215 227 219 216 222 224 226 237 247 252 252
186 181 182 187 190 186 181 180 186 183 176 171 182 183 179 181 189 191 194 194 196 199 200 202 207 211 212 211 206 215 219 223 235 225 221 226 227 234 243 247 251 254
182 181 183 184 189 184 172 174 181 181 184 183 182 177 180 180 189 190 190 193 200 203 202 202 204 211 212 213 210 226 222 232 226 217 236 245 245 237 249 243 247 256
184 180 180 184 188 178 172 181 180 175 181 182 184 180 185 182 185 189 188 194 200 207 206 205 205 213 213 215 214 225 232 236 235 220 234 247 256 245 243 239 245 251
182 179 183 186 184 172 177 186 180 177 180 179 170 183 181 181 181 183 183 190 197 201 205 203 206 212 209 212 211 221 224 233 236 225 238 245 246 255 248 241 243 248
173 172 176 179 181 177 189 188 177 177 175 166 176 182 175 176 178 180 182 185 195 197 201 207 208 213 215 206 213 218 228 227 237 234 239 245 250 256 260 251 240 243
131 167 181 184 183 181 194 186 176 171 170 170 176 169 175 182 178 179 178 183 189 196 200 206 207 213 212 206 213 221 234 241 241 243 245 252 250 253 255 251 244 247
142 183 188 189 188 186 190 184 173 173 175 176 173 165 167 174 182 183 182 184 192 197 201 207 208 209 213 211 218 223 230 237 240 238 242 245 251 257 258 245 251 260
189 194 188 187 187 187 187 177 173 177 173 173 161 157 162 157 179 194 193 194 201 199 202 207 210 212 216 219 216 220 227 235 240 241 241 243 246 249 248 251 253 259
190 194 189 185 188 187 184 180 174 169 166 166 166 163 168 156 154 180 210 215 209 203 200 208 209 216 221 223 225 220 220 231 237 241 243 245 245 243 241 239 247 254
193 193 183 188 190 179 172 169 163 162 172 173 172 156 148 143 169 196 232 231 220 212 212 212 215 218 221 222 225 222 221 225 232 236 240 241 241 240 241 237 241 244
197 196 184 181 176 175 181 174 161 162 152 151 166 154 147 168 175 204 224 229 226 216 218 215 215 219 220 223 222 226 224 226 230 236 238 237 236 236 237 240 238 244
197 197 186 175 178 177 172 160 148 112 105 140 175 167 163 179 177 212 228 236 231 221 219 215 218 223 222 219 223 224 226 232 231 233 236 238 237 236 231 232 238 242
195 194 187 181 173 117 78 89 95 132 159 176 176 171 168 143 173 221 225 224 220 216 215 217 220 221 224 224 225 230 226 228 230 233 236 237 238 242 239 233 234 237
187 196 188 176 133 113 169 154 121 138 146 89 155 180 176 170 197 222 228 229 221 215 215 217 222 223 225 222 221 226 233 236 232 232 231 231 234 239 247 245 237 230
188 188 185 172 151 161 149 141 148 155 156 156 216 194 171 198 217 223 230 224 219 225 224 220 222 223 222 222 221 221 221 231 236 235 231 231 233 235 242 246 243 239
185 186 182 169 161 153 147 138 148 151 168 196 200 227 206 200 223 223 226 222 223 224 225 222 227 218 217 221 222 222 221 222 241 241 237 241 239 237 243 245 238 195
183 184 182 174 155 156 157 158 166 176 178 181 195 192 210 223 224 224 220 216 220 223 225 225 227 217 212 217 220 222 223 215 239 243 247 250 250 249 250 274 277 231
183 183 176 164 159 164 170 178 175 171 180 188 193 200 207 217 226 227 224 221 223 223 228 232 233 217 211 216 220 222 226 220 244 252 256 258 260 263 243 248 242 241
178 176 169 163 165 173 180 181 181 183 191 189 196 207 215 221 228 233 229 223 220 219 226 234 238 209 208 214 217 224 226 229 241 249 255 254 254 254 254 247 243 235
175 170 169 168 170 176 184 189 185 185 190 195 200 206 211 220 225 227 229 225 221 217 222 235 244 214 198 207 214 221 195 231 233 244 260 338 322 299 278 261 244 225
168 170 168 166 172 183 193 194 185 187 193 190 199 206 213 219 221 226 230 228 228 229 226 236 249 229 165 175 204 205 208 233 235 48 40 285 261 263 253 253 234 196
165 168 169 171 178 188 191 184 186 192 195 194 206 213 221 224 221 222 226 226 232 239 226 251 271 121 140 184 196 181 189 208 169 171 215 220 228 233 221 229 207 197
170 169 173 175 181 186 185 187 188 194 198 208 217 222 226 229 223 215 220 223 210 211 216 218 250 346 82 168 173 177 181 175 169 202 219 265 251 218 215 207 203 187